FLOCK 2K-39 (42866 NORAD) Tracking and Keplerian Element Data

This shows tracking and keplerian element data for the satellite.

Feedback or suggestion? Click here.




ElementValue
Catalog42866
NameFLOCK 2K-39
Epoch Orbit3280
Epoch Day45.51252578
Epoch Year2018
RAAN308.3077
Inclination96.9927
Eccentricity0.0010416
Argument of Perigee187.1578
Mean Anonmoly172.952
Mean Motion15.35651484
Decay Rate7.436E-05
L11 42866U 17042AT 18045.51252578 .00007436 00000-0 21632-3 0 9990
L22 42866 96.9927 308.3077 0010416 187.1578 172.9520 15.35651484 32808

Live tracking and technical data element details for FLOCK 2K-39 (NORAD 42866). FLOCK 2K-39 can be tracked NOW for your location showing map with azimuth and elevation plus other details from your city location.

Track the satellite on the map from your city or location and see movement details for azimuth, elevation, latitude, longitude, range, height, and movement on the map or in text.







IsCatalogInMostPopularTable: catalog: 42866, numindb: 160
Update: records affected: 1



GetName: 42866 FLOCK 2K-39

Hit Count: updated at: Sun, 16 Dec 2018 10:04:09 GMT